Theta_e
314 316 319 323 324 323 323 324 325 324 323 320 331 330 330 329 327 328 333 334 336 337 337 338 331 333 332 332 333 333 337 338 338 336 335 333 332 332 331 330 329 332 330 329 329 329 329 328 328
315 317 321 324 325 321 321 322 327 323 321 324 325 327 327 330 334 334 334 333 336 337 338 336 328 332 331 331 331 333 336 338 337 336 333 332 331 331 331 329 329 330 333 330 328 328 326 326 327
316 317 321 325 325 321 320 321 325 322 322 322 326 327 328 331 333 334 333 334 336 337 338 335 331 331 329 329 330 331 336 337 336 334 334 331 330 330 331 328 328 331 329 328 328 326 327 326 326
318 320 318 323 323 319 319 319 321 326 320 319 326 328 331 332 332 333 333 335 336 338 338 331 331 331 324 322 325 330 334 336 335 334 332 330 329 330 330 327 327 328 328 327 327 328 326 325 325
317 321 322 322 320 317 316 319 322 325 321 322 323 325 332 333 331 331 333 335 336 338 339 336 328 327 323 321 320 328 333 334 334 332 330 330 329 329 329 327 326 327 327 327 327 327 326 325 324
319 320 323 323 320 319 319 318 321 320 320 322 324 326 331 334 331 332 333 335 336 337 339 337 326 322 322 323 323 323 332 332 333 331 329 329 329 328 329 327 326 327 328 326 324 325 325 325 323
320 322 323 322 320 320 320 317 319 319 320 322 325 324 330 335 333 332 332 335 335 336 338 338 333 325 324 325 326 327 328 331 330 329 327 325 326 326 327 326 326 326 329 326 326 326 324 323 322
320 321 320 318 319 320 319 317 316 318 319 319 325 323 327 334 333 332 333 334 335 337 338 339 337 332 331 329 326 326 325 328 331 329 325 322 323 322 324 325 325 326 325 327 324 324 324 323 322
315 321 323 319 318 318 316 318 314 314 318 322 323 322 328 335 332 332 332 334 335 336 337 337 338 335 333 332 329 326 327 327 327 327 323 321 325 324 323 325 324 325 324 326 325 323 324 323 323
319 321 322 318 317 318 317 318 317 317 318 319 320 321 332 335 333 333 332 332 334 335 335 336 338 337 335 332 331 330 330 330 330 329 326 325 324 323 323 324 323 323 324 324 324 323 323 323 324
315 320 316 313 314 315 317 316 315 317 318 318 319 320 333 335 333 333 332 332 332 334 334 335 335 336 336 333 332 331 330 330 329 328 325 322 323 321 323 324 324 323 323 324 323 321 321 321 322
316 312 314 315 313 314 317 315 316 316 317 313 316 319 331 335 334 332 333 333 332 334 334 333 334 336 336 335 333 332 330 329 328 327 323 322 322 323 323 323 324 323 323 323 321 320 318 317 317
316 313 313 312 312 313 312 315 315 315 314 311 312 319 329 334 334 333 332 333 333 334 334 333 334 334 337 334 333 333 332 329 328 327 324 322 322 322 322 323 322 322 320 320 319 319 318 317 317
313 314 313 312 312 312 314 313 313 313 311 311 313 318 324 331 333 334 334 334 334 334 334 332 335 334 334 333 334 332 331 331 329 327 325 323 322 321 321 322 321 321 319 318 318 318 317 318 318
312 314 313 313 313 313 312 312 313 312 309 312 313 315 320 328 332 333 334 334 334 334 335 333 336 334 332 333 334 332 333 331 330 328 326 325 323 321 320 321 321 320 318 317 316 316 316 318 318
312 313 315 310 312 312 310 314 308 310 310 312 312 313 313 318 327 331 333 333 334 334 335 335 334 334 333 333 333 332 330 331 330 330 328 326 326 324 322 321 322 322 319 318 316 315 315 316 316
311 314 313 308 311 312 311 314 310 310 311 312 312 312 311 312 312 321 329 332 333 333 334 334 334 333 334 335 334 333 331 330 331 329 329 327 327 326 325 324 324 324 322 321 318 316 315 315 315
313 311 309 310 312 311 313 312 312 311 311 314 314 314 313 312 312 311 312 323 329 331 332 333 333 334 333 335 335 332 330 329 329 329 330 329 330 326 326 324 324 324 323 323 322 320 317 315 314
312 310 311 309 310 312 313 313 313 313 312 314 315 314 313 312 310 307 307 308 317 326 329 331 332 333 334 333 330 329 329 329 330 329 330 330 331 329 327 327 325 324 325 324 322 321 318 317 314
310 310 312 312 310 312 312 314 314 313 312 312 312 312 311 310 309 307 307 305 306 313 323 328 330 331 333 333 332 331 329 329 329 329 330 329 329 330 329 328 327 326 325 325 324 321 317 316 317
310 311 311 313 310 309 309 311 310 306 307 307 309 308 308 309 310 310 308 307 306 306 313 321 326 329 330 331 332 329 330 329 329 329 328 328 328 329 329 330 329 327 326 325 325 323 320 319 315
311 309 311 312 313 312 309 311 312 309 309 311 311 311 310 310 310 309 310 310 309 308 304 311 319 324 327 329 330 329 328 329 329 329 328 328 327 327 328 328 328 328 329 328 327 326 324 320 317
310 309 311 311 314 313 312 311 312 307 311 312 310 310 311 310 310 310 309 309 309 311 307 305 312 318 323 326 328 329 327 328 330 330 330 329 328 328 328 328 329 328 328 327 326 326 324 323 319
308 311 311 311 313 312 312 312 311 310 309 310 309 311 310 310 310 309 308 309 311 314 315 311 312 316 320 323 325 328 327 326 327 328 328 328 327 325 326 327 327 327 327 327 327 326 325 323 320
310 312 313 313 315 312 307 310 311 307 306 308 309 311 311 310 311 310 310 309 309 310 313 318 318 320 320 322 322 322 324 324 324 325 324 324 324 323 323 322 323 323 324 324 324 324 324 322 321
313 311 314 315 312 311 307 312 312 307 306 305 310 310 310 310 309 309 308 307 307 307 307 308 308 308 312 316 318 320 320 321 321 321 320 319 319 318 315 315 315 316 317 317 319 321 320 319 319
310 310 308 309 303 314 311 310 309 309 309 310 311 311 311 310 309 308 306 306 306 306 305 306 306 306 306 306 306 307 307 307 307 307 308 308 308 308 308 308 309 309 310 310 312 314 315 316 317
310 308 311 310 319 315 308 308 312 312 312 311 311 311 309 308 308 307 307 306 305 305 304 304 304 304 304 305 306 306 306 306 306 306 306 306 306 306 306 306 307 307 307 307 307 308 310 312 313
308 309 308 310 311 318 313 310 308 312 313 313 312 311 310 309 309 308 306 305 304 304 304 303 303 304 304 305 305 305 304 304 304 304 304 304 304 304 304 304 305 305 305 305 305 305 306 307 308
307 310 310 312 311 307 310 312 306 310 312 312 311 309 309 309 307 306 306 305 304 303 302 301 300 301 301 301 301 301 301 300 300 300 300 300 301 301 301 301 301 302 302 302 302 303 303 304 305
Wind_Speed
3 3 2 2 3 1 5 5 1 6 5 2 4 1 2 4 3 3 7 7 17 17 16 14 14 13 13 14 15 13 14 15 17 16 14 15 16 16 16 17 16 17 18 17 17 17 18 18 18
3 3 2 1 2 4 5 5 7 5 4 7 5 4 2 4 3 7 14 12 19 17 16 13 15 15 15 14 16 14 14 15 16 15 14 14 16 16 16 16 16 15 17 16 15 16 16 16 16
3 4 2 1 0 3 4 7 7 6 6 3 3 2 1 4 4 15 8 21 18 16 15 13 15 16 16 15 16 16 13 16 16 13 14 15 15 15 15 15 15 15 14 14 14 15 16 16 16
1 2 3 3 2 2 2 7 6 11 3 2 2 4 2 2 9 5 18 22 20 16 16 16 15 15 14 14 15 17 15 14 13 13 13 14 14 14 14 13 13 14 13 13 14 15 17 16 14
4 0 2 1 3 1 3 5 9 10 5 5 3 3 1 3 6 10 21 22 21 17 15 15 15 13 13 13 15 17 15 13 12 11 12 14 14 14 13 12 12 13 12 13 15 15 13 15 14
3 0 4 5 5 3 3 7 9 7 4 6 4 4 3 2 10 14 21 21 18 18 16 14 14 13 13 13 15 16 15 12 10 10 11 13 13 13 12 11 11 12 11 12 15 12 11 11 11
3 2 2 3 6 5 5 8 9 7 7 5 6 4 3 6 9 17 20 19 17 15 15 14 13 13 13 13 14 15 15 13 10 9 10 11 12 11 13 9 12 10 10 12 12 11 10 9 9
3 2 5 3 7 4 7 7 2 4 5 4 1 3 5 10 12 20 20 17 15 14 14 13 12 12 12 12 12 13 13 13 11 9 8 10 10 10 13 10 10 10 6 8 9 9 9 9 10
1 4 5 7 7 7 7 6 2 1 6 3 5 1 4 17 18 18 20 17 16 14 13 13 13 12 11 11 11 12 11 11 10 8 8 9 8 8 10 9 8 9 7 8 7 7 8 8 6
4 3 7 4 4 6 10 5 9 5 5 5 6 5 10 18 21 21 22 22 20 19 16 14 13 13 12 11 11 10 10 9 9 8 9 8 8 8 9 9 9 9 8 7 7 6 7 6 4
3 4 5 4 3 5 10 5 4 5 5 6 9 12 15 19 22 22 22 22 22 19 17 16 15 15 14 12 11 10 10 9 9 9 9 8 8 8 7 7 7 6 7 4 5 7 5 5 4
5 2 3 5 5 6 10 8 4 6 3 4 2 10 16 19 22 24 23 23 22 20 18 17 18 19 16 13 13 11 10 10 10 10 11 9 8 8 7 7 7 6 6 6 6 6 6 5 5
3 5 4 5 6 6 7 5 1 5 5 2 4 9 14 18 21 20 20 21 20 21 20 19 22 20 18 16 14 13 12 11 10 10 11 10 9 9 8 8 8 8 8 7 7 7 6 6 5
4 7 6 2 5 3 4 3 2 2 2 5 6 7 11 15 19 18 20 21 22 21 22 22 26 24 22 22 19 18 15 13 12 12 13 14 11 10 9 9 9 9 8 8 8 8 8 8 8
8 6 3 2 1 3 1 4 7 3 0 4 8 7 7 13 16 22 23 24 24 22 20 21 25 26 23 23 20 19 18 14 14 14 15 17 16 13 12 10 10 10 10 11 11 11 10 9 9
4 3 6 2 1 2 2 6 1 2 7 6 5 8 7 9 18 19 20 22 23 22 23 22 21 27 25 22 22 20 20 21 19 15 14 18 18 16 16 15 13 14 15 14 15 16 15 13 15
1 7 7 2 0 1 5 4 1 1 1 4 5 5 7 7 13 16 19 21 22 23 22 23 23 24 28 26 23 23 24 23 20 20 18 17 19 19 20 20 19 18 19 19 19 20 19 17 17
7 6 3 5 5 2 4 11 5 4 5 4 5 6 8 8 8 10 15 19 20 21 23 23 22 23 23 24 23 22 24 24 22 21 22 23 23 21 21 21 22 23 24 24 25 25 24 19 21
10 7 7 2 1 3 7 11 11 8 7 10 9 9 7 8 5 6 9 12 17 22 23 24 24 24 22 22 23 23 26 27 27 26 24 24 24 23 26 27 26 26 27 26 26 27 26 27 22
9 9 5 3 2 2 2 11 11 7 5 7 8 7 7 5 6 5 5 6 13 19 23 24 25 23 24 22 21 19 18 23 26 28 30 28 27 27 26 30 31 31 31 31 30 27 19 24 26
3 9 6 4 4 2 3 7 4 2 0 2 3 4 2 3 4 6 5 3 3 11 16 20 22 22 22 21 17 17 16 17 18 24 27 29 28 28 31 29 31 32 32 34 32 34 32 24 19
5 4 8 11 7 3 2 3 3 2 3 3 2 3 4 4 4 5 6 6 5 1 9 14 15 18 18 18 17 20 19 19 19 18 20 23 23 23 26 30 30 32 34 35 37 35 34 29 22
3 6 7 4 4 2 3 4 3 1 5 6 4 3 4 4 4 6 7 7 8 7 3 8 11 12 13 16 17 16 17 15 14 12 13 13 15 19 22 24 28 31 31 33 33 32 32 34 30
14 10 7 4 2 3 2 3 4 4 4 5 4 4 4 4 6 8 9 10 13 13 13 11 9 7 7 10 12 13 11 13 11 10 12 11 11 12 16 19 23 27 28 30 31 32 34 34 33
3 14 4 3 4 4 2 3 6 3 3 1 2 5 6 6 8 9 12 15 16 18 17 17 16 15 10 8 5 6 7 8 9 9 8 10 10 10 11 13 16 19 22 25 27 29 32 34 35
15 7 6 7 5 4 1 7 3 1 2 3 5 7 8 10 9 10 13 15 16 18 18 19 19 17 14 11 9 5 4 3 4 5 6 7 7 9 11 12 14 16 18 20 22 25 30 31 34
7 6 4 7 1 2 4 4 8 2 5 6 9 11 11 11 10 10 12 14 16 18 18 18 19 18 17 15 14 13 10 8 5 4 5 5 8 10 12 13 15 15 17 18 18 20 23 24 28
4 11 3 1 5 5 4 5 5 8 11 11 13 13 11 10 10 10 13 14 15 15 16 18 18 20 19 19 18 17 15 13 12 10 10 9 9 10 12 13 15 17 19 20 20 22 22 22 26
4 5 2 3 2 5 4 5 3 12 15 17 15 13 12 11 11 10 13 13 15 15 15 16 17 18 18 17 16 16 16 14 13 13 12 12 12 12 13 14 15 16 17 18 19 20 21 21 24
2 5 9 6 6 0 1 3 1 8 15 16 14 11 11 10 10 11 13 14 14 14 15 15 16 18 17 15 15 16 15 15 15 15 15 15 16 16 16 17 18 18 19 19 19 20 21 20 22
Wind_Direction
329 332 332 255 204 228 134 160 89 142 149 73 117 248 41 27 337 14 137 138 147 149 150 147 149 143 134 128 131 129 118 126 120 106 98 94 94 98 92 91 92 92 88 83 87 88 90 88 87
356 352 46 83 225 180 145 155 171 125 100 121 123 126 161 84 64 110 140 152 150 148 146 145 146 138 131 125 130 135 117 124 116 107 103 98 98 104 100 92 95 98 93 88 90 93 94 93 90
24 43 332 44 128 156 141 177 140 113 113 145 135 28 9 92 93 146 142 152 153 149 147 146 146 142 137 131 132 133 114 126 120 110 113 102 100 109 104 99 94 95 95 87 93 96 100 96 97
15 88 107 254 146 102 67 149 150 143 148 123 105 110 128 8 142 158 154 155 153 153 151 150 151 150 140 137 135 139 128 131 123 118 109 105 107 113 111 103 100 101 95 91 100 109 100 99 102
49 99 201 196 145 138 128 146 168 156 137 142 141 120 115 135 147 147 158 160 158 155 155 152 155 150 140 139 141 144 140 133 132 118 111 112 113 116 116 110 104 107 105 97 113 114 107 104 106
119 286 212 197 156 152 132 164 165 152 155 138 143 145 126 145 154 159 164 165 164 157 156 158 156 153 148 147 141 142 147 144 137 120 114 118 118 118 119 109 105 105 121 107 109 110 105 113 111
170 191 213 165 140 151 142 164 182 158 155 151 121 159 112 178 165 160 166 167 167 165 161 161 158 158 157 152 149 149 151 149 145 132 133 122 121 123 128 121 113 114 129 129 127 129 125 117 121
133 168 160 189 171 121 142 159 189 182 136 120 149 162 151 164 156 156 165 170 172 173 173 169 167 161 159 160 159 155 153 153 151 141 132 131 131 128 136 127 126 126 129 131 141 144 150 144 145
169 195 188 175 175 138 157 168 155 112 138 172 160 118 109 146 152 157 167 173 180 186 186 183 177 176 170 165 168 164 159 161 159 150 146 131 130 129 128 152 139 129 129 138 144 146 147 154 151
212 215 185 171 164 148 165 182 149 175 159 173 163 126 140 153 164 170 180 183 185 188 191 193 190 185 179 173 171 170 170 164 163 156 153 147 146 147 145 152 161 153 145 144 153 144 146 142 143
169 205 157 159 155 158 149 153 147 162 196 209 192 171 166 170 177 184 190 193 193 194 194 192 195 192 188 186 182 183 182 179 175 172 170 165 158 157 153 158 159 158 154 152 155 160 165 176 174
160 89 143 141 153 144 153 127 173 214 70 55 179 166 171 182 189 191 194 197 195 199 202 201 200 201 195 191 192 197 193 190 185 187 188 182 174 176 176 173 177 177 185 188 180 185 193 202 211
133 142 96 117 132 104 136 141 173 232 204 144 88 165 185 196 196 199 202 202 201 204 204 205 205 206 202 202 203 199 202 202 199 195 203 198 194 191 188 189 189 193 197 196 196 201 208 217 220
117 122 123 129 116 99 168 146 242 136 152 197 179 189 195 201 203 198 203 207 206 207 207 204 208 209 207 208 209 211 207 207 204 204 211 212 206 205 203 204 207 208 208 210 208 211 216 223 227
127 109 131 93 113 94 339 224 221 131 97 161 190 196 204 204 205 213 208 207 207 210 211 208 211 207 205 207 209 212 214 210 212 213 216 218 218 216 215 213 219 222 224 226 227 225 229 232 236
108 134 181 125 190 79 221 247 167 9 218 215 196 206 212 210 217 220 222 216 215 213 211 210 208 212 211 210 213 215 223 228 223 218 221 224 226 226 227 229 235 245 240 234 235 236 241 242 246
160 188 201 182 255 182 211 253 175 171 221 191 195 207 231 230 228 227 226 224 219 216 216 215 212 214 218 218 217 219 224 228 223 225 224 226 228 231 233 235 238 237 242 244 246 247 245 248 251
166 172 177 195 172 217 210 252 236 230 271 247 257 235 232 242 244 228 227 229 227 224 221 221 217 216 217 217 215 219 224 229 230 227 237 237 233 230 230 234 240 240 243 244 246 248 250 250 255
158 139 159 131 71 225 233 267 262 264 271 252 253 263 263 270 291 280 251 227 223 223 221 219 218 218 212 211 209 219 224 231 235 238 243 244 243 236 233 237 241 246 246 249 251 252 249 254 253
145 150 145 101 69 232 275 267 264 266 252 280 289 278 286 289 308 324 303 246 227 223 222 219 218 216 215 217 215 218 223 233 235 242 245 247 250 249 246 246 246 252 252 254 253 249 243 252 251
135 172 167 147 139 81 296 268 240 106 214 312 333 299 324 343 356 359 15 8 289 233 221 219 219 218 217 216 216 218 221 231 237 238 248 252 254 256 250 256 255 254 254 255 254 253 250 244 250
172 158 134 135 157 210 348 259 266 146 134 106 80 66 64 44 43 42 36 42 34 298 219 216 215 215 216 212 212 214 221 229 238 244 252 258 261 260 255 260 265 268 264 259 260 261 258 249 240
147 128 119 124 110 168 189 262 238 159 167 140 107 76 69 49 41 48 44 45 41 48 109 187 194 199 207 209 216 219 225 237 248 246 245 247 249 258 262 263 265 264 266 268 270 266 263 258 248
142 109 73 72 87 238 154 246 234 185 171 153 120 98 70 69 81 72 68 68 63 67 76 93 121 140 174 195 211 223 228 238 246 251 261 263 265 267 270 265 262 262 265 270 272 271 268 267 260
186 155 135 179 191 233 27 211 267 158 126 108 132 105 100 101 94 85 78 74 71 71 77 87 94 95 113 131 158 204 227 241 256 269 276 278 281 275 276 272 270 270 271 274 276 274 272 269 263
182 194 167 179 189 164 100 220 243 111 355 179 116 116 119 109 104 92 86 81 74 73 75 81 82 84 89 97 104 121 161 213 256 274 281 290 291 295 295 290 284 280 277 275 271 268 269 268 265
176 200 98 105 59 170 204 250 261 119 139 151 139 138 130 119 109 98 89 84 79 76 74 77 80 79 78 81 84 82 78 73 61 33 8 343 328 320 316 310 302 296 290 286 280 274 271 270 267
216 141 128 87 152 211 204 270 223 181 171 161 153 146 135 123 113 104 95 92 89 84 82 80 79 79 79 79 77 75 70 65 58 46 30 15 357 341 331 322 314 307 300 296 291 286 282 276 272
142 179 118 127 197 187 174 232 215 187 169 164 156 148 143 133 123 115 105 97 89 86 80 78 77 78 77 76 74 70 63 55 48 42 31 18 7 359 349 339 331 323 315 308 300 293 287 282 279
338 190 181 192 190 187 19 240 116 184 164 160 153 149 142 133 124 115 107 98 91 84 78 71 70 71 68 66 66 63 56 47 39 30 19 11 3 359 351 346 341 334 327 319 310 304 294 287 284